Location: Ackerson Creek
(37.8210°N, 119.8757°W)
Time: 15:11:32
(UTC+00:00)

Cosmos 1975 - Pass Details

Date: 13 April 2024
Orbit: 514 x 533 km, 82.5° (Epoch: 22 May)

Event Time Altitude Azimuth Distance (km) Brightness Sun altitude
Rises 12:45:25 0° 334° (NNW) 2,642 6.2 -8.6°
Reaches altitude 10° 12:48:03 10° 316° (NW) 1,752 5.1 -8.1°
Maximum altitude 12:50:42 18° 272° (W) 1,317 4.2 -7.6°
Drops below altitude 10° 12:53:21 10° 228° (SW) 1,750 4.8 -7.1°
Sets 12:55:59 0° 209° (SSW) 2,636 5.9 -6.6°
Enters shadow 12:56:07 - 208° (SSW) 2,683 5.9 -6.6°
